Find Starlink 5539

NORAD ID: 55747 Int'l Des: 2023-028 Owner: SPXS Country: US Constellation: starlink operational
LEOCIRCULAR

現在のビュー

3D地球を読み込み中...

About Starlink 5539

Starlink 5539 (NORAD 55747) is a starlink constellation satellite (v1.5) launched Mar 3, 2023 by SPXS of US. It operates in LEO, CIRCULAR orbit with a mass of 305.00 kg.

Starlink 5539について

説明を読み込み中...

次回通過

Passes for default location (London). Set your location on the main map for personalized predictions.

高度履歴

Loading altitude history...

軌道要素

1 55747U 23028G 26178.14340852 -.00000513 00000-0 -35228-4 0 9999
2 55747 70.0005 328.5501 0003065 268.6736 91.4072 14.98330115182434
Epoch: Jun 27, 2026 • Age: 12 hours

現在のステータス

高度 574.5 km
速度 7.58 km/s
衛星直下点 17.90°N, 5.77°W
打ち上げ日 Mar 3, 2023
運用期間 3.3 years
タイプ internet

技術仕様

分類 Payload
質量 305.00 kg
乾燥質量 290.00 kg
総質量 305.00 kg
長さ 0.20 m
直径 2.80 m
スパン 9.00 m
形状 Box + pan
製造者 SPXS
バスタイプ Starlink
フェーズステータス In Orbit
所有者/国 SPXS/US

Most Searched